Location: Caltech
(34.1382°N, 118.1253°W)
Time: 16:25:18
(UTC-07:00)

Oscar 19 - Visible Passes

Search period start: 26 August 2016 00:00
Search period end: 05 September 2016 00:00
Orbit: 774 x 790 km, 98.5° (Epoch: 25 August)

Date Brightness Start Highest point End Pass type
(mag) Time Alt. Az. Time Alt. Az. Time Alt. Az.
26 Aug 12.9 02:52:00 10° N 02:53:28 19° N 02:53:28 19° N visible
27 Aug 13.2 02:20:03 10° NNE 02:21:12 17° NNE 02:21:12 17° NNE visible
28 Aug 13.5 01:48:35 10° NNE 01:48:55 12° NNE 01:48:55 12° NNE visible
28 Aug 13.0 03:28:35 10° NNW 03:29:28 14° NNW 03:29:28 14° NNW visible
29 Aug 13.0 02:56:01 10° N 02:57:12 17° N 02:57:12 17° N visible
30 Aug 13.2 02:24:00 10° NNE 02:24:56 15° NNE 02:24:56 15° NNE visible
31 Aug 13.6 01:52:28 10° NNE 01:52:39 11° NNE 01:52:39 11° NNE visible
31 Aug 13.1 03:32:43 10° NNW 03:33:12 12° NNW 03:33:12 12° NNW visible
01 Sep 13.1 03:00:03 10° N 03:00:56 15° N 03:00:56 15° N visible
02 Sep 13.3 02:27:58 10° N 02:28:39 14° N 02:28:39 14° N visible
03 Sep 13.7 01:56:22 10° NNE 01:56:22 10° NNE 01:56:22 10° NNE visible
03 Sep 13.2 03:36:51 10° NNW 03:36:56 10° NNW 03:36:56 10° NNW visible
04 Sep 13.2 03:04:05 10° N 03:04:39 13° N 03:04:39 13° N visible
